Year,Month,Day,Hour,Minute,Value (Times are PST for temperature in C)
2021,06,26,00,00,19.40
2021,06,26,00,01,19.40
2021,06,26,00,02,19.40
2021,06,26,00,03,19.40
2021,06,26,00,04,19.50
2021,06,26,00,05,19.50
2021,06,26,00,06,19.50
2021,06,26,00,07,19.60
2021,06,26,00,08,19.60
2021,06,26,00,09,19.60
2021,06,26,00,10,19.60
2021,06,26,00,11,19.60
2021,06,26,00,12,19.60
2021,06,26,00,13,19.60
2021,06,26,00,14,19.60
2021,06,26,00,15,19.70
2021,06,26,00,16,19.70
2021,06,26,00,17,19.70
2021,06,26,00,18,19.70
2021,06,26,00,19,19.70
2021,06,26,00,20,19.70
2021,06,26,00,21,19.70
2021,06,26,00,22,19.70
2021,06,26,00,23,19.70
2021,06,26,00,24,19.70
2021,06,26,00,25,19.70
2021,06,26,00,26,19.60
2021,06,26,00,27,19.60
2021,06,26,00,28,19.60
2021,06,26,00,29,19.60
2021,06,26,00,30,19.60
2021,06,26,00,31,19.60
2021,06,26,00,32,19.60
2021,06,26,00,33,19.60
2021,06,26,00,34,19.60
2021,06,26,00,35,19.60
2021,06,26,00,36,19.50
2021,06,26,00,37,19.50
2021,06,26,00,38,19.50
2021,06,26,00,39,19.50
2021,06,26,00,40,19.50
2021,06,26,00,41,19.50
2021,06,26,00,42,19.50
2021,06,26,00,43,19.50
2021,06,26,00,44,19.50
2021,06,26,00,45,19.50
2021,06,26,00,46,19.50
2021,06,26,00,47,19.50
2021,06,26,00,48,19.50
2021,06,26,00,49,19.50
2021,06,26,00,50,19.60
2021,06,26,00,51,19.60
2021,06,26,00,52,19.60
2021,06,26,00,53,19.50
2021,06,26,00,54,19.50
2021,06,26,00,55,19.50
2021,06,26,00,56,19.50
2021,06,26,00,57,19.50
2021,06,26,00,58,19.50
2021,06,26,00,59,19.50
2021,06,26,01,00,19.50
2021,06,26,01,01,19.50
2021,06,26,01,02,19.50
2021,06,26,01,03,19.50
2021,06,26,01,04,19.50
2021,06,26,01,05,19.50
2021,06,26,01,06,19.50
2021,06,26,01,07,19.50
2021,06,26,01,08,19.50
2021,06,26,01,09,19.50
2021,06,26,01,10,19.50
2021,06,26,01,11,19.50
2021,06,26,01,12,19.50
2021,06,26,01,13,19.50
2021,06,26,01,14,19.40
2021,06,26,01,15,19.40
2021,06,26,01,16,19.40
2021,06,26,01,17,19.40
2021,06,26,01,18,19.40
2021,06,26,01,19,19.40
2021,06,26,01,20,19.40
2021,06,26,01,21,19.40
2021,06,26,01,22,19.30
2021,06,26,01,23,19.30
2021,06,26,01,24,19.30
2021,06,26,01,25,19.30
2021,06,26,01,26,19.30
2021,06,26,01,27,19.30
2021,06,26,01,28,19.20
2021,06,26,01,29,19.20
2021,06,26,01,30,19.20
2021,06,26,01,31,19.20
2021,06,26,01,32,19.20
2021,06,26,01,33,19.20
2021,06,26,01,34,19.10
2021,06,26,01,35,19.10
2021,06,26,01,36,19.10
2021,06,26,01,37,19.10
2021,06,26,01,38,19.10
2021,06,26,01,39,19.10
2021,06,26,01,40,19.10
2021,06,26,01,41,19.10
2021,06,26,01,42,19.10
2021,06,26,01,43,19.10
2021,06,26,01,44,19.20
2021,06,26,01,45,19.20
2021,06,26,01,46,19.20
2021,06,26,01,47,19.20
2021,06,26,01,48,19.20
2021,06,26,01,49,19.20
2021,06,26,01,50,19.20
2021,06,26,01,51,19.20
2021,06,26,01,52,19.20
2021,06,26,01,53,19.20
2021,06,26,01,54,19.20
2021,06,26,01,55,19.20
2021,06,26,01,56,19.30
2021,06,26,01,57,19.30
2021,06,26,01,58,19.30
2021,06,26,01,59,19.30
2021,06,26,02,00,19.30
2021,06,26,02,01,19.30
2021,06,26,02,02,19.30
2021,06,26,02,03,19.40
2021,06,26,02,04,19.40
2021,06,26,02,05,19.40
2021,06,26,02,06,19.40
2021,06,26,02,07,19.40
2021,06,26,02,08,19.40
2021,06,26,02,09,19.40
2021,06,26,02,10,19.30
2021,06,26,02,11,19.30
2021,06,26,02,12,19.40
2021,06,26,02,13,19.40
2021,06,26,02,14,19.40
2021,06,26,02,15,19.40
2021,06,26,02,16,19.40
2021,06,26,02,17,19.40
2021,06,26,02,18,19.40
2021,06,26,02,19,19.40
2021,06,26,02,20,19.50
2021,06,26,02,21,19.50
2021,06,26,02,22,19.50
2021,06,26,02,23,19.60
2021,06,26,02,24,19.60
2021,06,26,02,25,19.60
2021,06,26,02,26,19.70
2021,06,26,02,27,19.70
2021,06,26,02,28,19.80
2021,06,26,02,29,19.80
2021,06,26,02,30,19.80
2021,06,26,02,31,19.90
2021,06,26,02,32,20.00
2021,06,26,02,33,20.10
2021,06,26,02,34,20.10
2021,06,26,02,35,20.20
2021,06,26,02,36,20.20
2021,06,26,02,37,20.30
2021,06,26,02,38,20.40
2021,06,26,02,39,20.40
2021,06,26,02,40,20.40
2021,06,26,02,41,20.40
2021,06,26,02,42,20.50
2021,06,26,02,43,20.50
2021,06,26,02,44,20.50
2021,06,26,02,45,20.60
2021,06,26,02,46,20.60
2021,06,26,02,47,20.70
2021,06,26,02,48,20.80
2021,06,26,02,49,20.80
2021,06,26,02,50,20.90
2021,06,26,02,51,21.00
2021,06,26,02,52,21.10
2021,06,26,02,53,21.20
2021,06,26,02,54,21.20
2021,06,26,02,55,21.30
2021,06,26,02,56,21.30
2021,06,26,02,57,21.30
2021,06,26,02,58,21.30
2021,06,26,02,59,21.30
2021,06,26,03,00,21.40
2021,06,26,03,01,21.40
2021,06,26,03,02,21.40
2021,06,26,03,03,21.40
2021,06,26,03,04,21.40
2021,06,26,03,05,21.50
2021,06,26,03,06,21.50
2021,06,26,03,07,21.60
2021,06,26,03,08,21.70
2021,06,26,03,09,21.80
2021,06,26,03,10,22.00
2021,06,26,03,11,22.10
2021,06,26,03,12,22.30
2021,06,26,03,13,22.50
2021,06,26,03,14,22.70
2021,06,26,03,15,22.90
2021,06,26,03,16,23.00
2021,06,26,03,17,23.10
2021,06,26,03,18,23.20
2021,06,26,03,19,23.30
2021,06,26,03,20,23.40
2021,06,26,03,21,23.40
2021,06,26,03,22,23.50
2021,06,26,03,23,23.60
2021,06,26,03,24,23.70
2021,06,26,03,25,23.80
2021,06,26,03,26,23.80
2021,06,26,03,27,23.80
2021,06,26,03,28,23.80
2021,06,26,03,29,23.80
2021,06,26,03,30,23.80
2021,06,26,03,31,23.70
2021,06,26,03,32,23.70
2021,06,26,03,33,23.70
2021,06,26,03,34,23.70
2021,06,26,03,35,23.60
2021,06,26,03,36,23.60
2021,06,26,03,37,23.50
2021,06,26,03,38,23.50
2021,06,26,03,39,23.40
2021,06,26,03,40,23.40
2021,06,26,03,41,23.40
2021,06,26,03,42,23.50
2021,06,26,03,43,23.50
2021,06,26,03,44,23.50
2021,06,26,03,45,23.50
2021,06,26,03,46,23.50
2021,06,26,03,47,23.50
2021,06,26,03,48,23.50
2021,06,26,03,49,23.50
2021,06,26,03,50,23.60
2021,06,26,03,51,23.80
2021,06,26,03,52,23.90
2021,06,26,03,53,23.90
2021,06,26,03,54,23.90
2021,06,26,03,55,24.00
2021,06,26,03,56,24.00
2021,06,26,03,57,24.00
2021,06,26,03,58,24.00
2021,06,26,03,59,24.00
2021,06,26,04,00,24.00
2021,06,26,04,01,24.00
2021,06,26,04,02,24.00
2021,06,26,04,03,23.90
2021,06,26,04,04,23.90
2021,06,26,04,05,23.90
2021,06,26,04,06,23.90
2021,06,26,04,07,23.90
2021,06,26,04,08,23.90
2021,06,26,04,09,23.90
2021,06,26,04,10,23.80
2021,06,26,04,11,23.80
2021,06,26,04,12,23.80
2021,06,26,04,13,23.80
2021,06,26,04,14,23.80
2021,06,26,04,15,23.70
2021,06,26,04,16,23.70
2021,06,26,04,17,23.60
2021,06,26,04,18,23.60
2021,06,26,04,19,23.50
2021,06,26,04,20,23.50
2021,06,26,04,21,23.40
2021,06,26,04,22,23.40
2021,06,26,04,23,23.40
2021,06,26,04,24,23.30
2021,06,26,04,25,23.30
2021,06,26,04,26,23.30
2021,06,26,04,27,23.30
2021,06,26,04,28,23.30
2021,06,26,04,29,23.30
2021,06,26,04,30,23.30
2021,06,26,04,31,23.30
2021,06,26,04,32,23.30
2021,06,26,04,33,23.30
2021,06,26,04,34,23.30
2021,06,26,04,35,23.40
2021,06,26,04,36,23.40
2021,06,26,04,37,23.40
2021,06,26,04,38,23.30
2021,06,26,04,39,23.30
2021,06,26,04,40,23.30
2021,06,26,04,41,23.30
2021,06,26,04,42,23.30
2021,06,26,04,43,23.20
2021,06,26,04,44,23.20
2021,06,26,04,45,23.20
2021,06,26,04,46,23.20
2021,06,26,04,47,23.20
2021,06,26,04,48,23.10
2021,06,26,04,49,23.00
2021,06,26,04,50,22.90
2021,06,26,04,51,22.80
2021,06,26,04,52,22.80
2021,06,26,04,53,22.70
2021,06,26,04,54,22.70
2021,06,26,04,55,22.60
2021,06,26,04,56,22.60
2021,06,26,04,57,22.60
2021,06,26,04,58,22.60
2021,06,26,04,59,22.50
2021,06,26,05,00,22.50
2021,06,26,05,01,22.50
2021,06,26,05,02,22.50
2021,06,26,05,03,22.50
2021,06,26,05,04,22.50
2021,06,26,05,05,22.50
2021,06,26,05,06,22.50
2021,06,26,05,07,22.50
2021,06,26,05,08,22.40
2021,06,26,05,09,22.40
2021,06,26,05,10,22.40
2021,06,26,05,11,22.40
2021,06,26,05,12,22.40
2021,06,26,05,13,22.30
2021,06,26,05,14,22.30
2021,06,26,05,15,22.30
2021,06,26,05,16,22.30
2021,06,26,05,17,22.30
2021,06,26,05,18,22.30
2021,06,26,05,19,22.30
2021,06,26,05,20,22.30
2021,06,26,05,21,22.30
2021,06,26,05,22,22.30
2021,06,26,05,23,22.30
2021,06,26,05,24,22.30
2021,06,26,05,25,22.30
2021,06,26,05,26,22.40
2021,06,26,05,27,22.50
2021,06,26,05,28,22.50
2021,06,26,05,29,22.60
2021,06,26,05,30,22.60
2021,06,26,05,31,22.60
2021,06,26,05,32,22.60
2021,06,26,05,33,22.60
2021,06,26,05,34,22.50
2021,06,26,05,35,22.40
2021,06,26,05,36,22.40
2021,06,26,05,37,22.30
2021,06,26,05,38,22.30
2021,06,26,05,39,22.30
2021,06,26,05,40,22.20
2021,06,26,05,41,22.20
2021,06,26,05,42,22.10
2021,06,26,05,43,22.10
2021,06,26,05,44,22.10
2021,06,26,05,45,22.00
2021,06,26,05,46,21.90
2021,06,26,05,47,21.90
2021,06,26,05,48,21.80
2021,06,26,05,49,21.80
2021,06,26,05,50,21.70
2021,06,26,05,51,21.70
2021,06,26,05,52,21.70
2021,06,26,05,53,21.70
2021,06,26,05,54,21.70
2021,06,26,05,55,21.70
2021,06,26,05,56,21.70
2021,06,26,05,57,21.70
2021,06,26,05,58,21.70
2021,06,26,05,59,21.70
2021,06,26,06,00,21.70
2021,06,26,06,01,21.70
2021,06,26,06,02,21.70
2021,06,26,06,03,21.70
2021,06,26,06,04,21.70
2021,06,26,06,05,21.80
2021,06,26,06,06,21.80
2021,06,26,06,07,21.80
2021,06,26,06,08,21.90
2021,06,26,06,09,21.90
2021,06,26,06,10,21.90
2021,06,26,06,11,21.90
2021,06,26,06,12,22.00
2021,06,26,06,13,22.00
2021,06,26,06,14,22.00
2021,06,26,06,15,22.00
2021,06,26,06,16,22.00
2021,06,26,06,17,22.00
2021,06,26,06,18,22.00
2021,06,26,06,19,22.00
2021,06,26,06,20,22.00
2021,06,26,06,21,22.00
2021,06,26,06,22,22.00
2021,06,26,06,23,22.00
2021,06,26,06,24,21.90
2021,06,26,06,25,21.90
2021,06,26,06,26,21.90
2021,06,26,06,27,22.00
2021,06,26,06,28,22.00
2021,06,26,06,29,22.10
2021,06,26,06,30,22.10
2021,06,26,06,31,22.20
2021,06,26,06,32,22.20
2021,06,26,06,33,22.20
2021,06,26,06,34,22.30
2021,06,26,06,35,22.30
2021,06,26,06,36,22.30
2021,06,26,06,37,22.40
2021,06,26,06,38,22.50
2021,06,26,06,39,22.60
2021,06,26,06,40,22.70
2021,06,26,06,41,22.70
2021,06,26,06,42,22.70
2021,06,26,06,43,22.70
2021,06,26,06,44,22.70
2021,06,26,06,45,22.70
2021,06,26,06,46,22.80
2021,06,26,06,47,22.80
2021,06,26,06,48,22.90
2021,06,26,06,49,22.90
2021,06,26,06,50,23.00
2021,06,26,06,51,23.10
2021,06,26,06,52,23.10
2021,06,26,06,53,23.20
2021,06,26,06,54,23.20
2021,06,26,06,55,23.20
2021,06,26,06,56,23.30
2021,06,26,06,57,23.40
2021,06,26,06,58,23.50
2021,06,26,06,59,23.50
2021,06,26,07,00,23.60
2021,06,26,07,01,23.70
2021,06,26,07,02,23.70
2021,06,26,07,03,23.80
2021,06,26,07,04,23.80
2021,06,26,07,05,23.90
2021,06,26,07,06,23.90
2021,06,26,07,07,24.00
2021,06,26,07,08,24.00
2021,06,26,07,09,24.10
2021,06,26,07,10,24.10
2021,06,26,07,11,24.20
2021,06,26,07,12,24.20
2021,06,26,07,13,24.20
2021,06,26,07,14,24.20
2021,06,26,07,15,24.30
2021,06,26,07,16,24.40
2021,06,26,07,17,24.60
2021,06,26,07,18,24.70
2021,06,26,07,19,24.80
2021,06,26,07,20,24.80
2021,06,26,07,21,24.90
2021,06,26,07,22,24.90
2021,06,26,07,23,25.00
2021,06,26,07,24,25.10
2021,06,26,07,25,25.30
2021,06,26,07,26,25.40
2021,06,26,07,27,25.40
2021,06,26,07,28,25.40
2021,06,26,07,29,25.40
2021,06,26,07,30,25.60
2021,06,26,07,31,25.70
2021,06,26,07,32,25.80
2021,06,26,07,33,25.90
2021,06,26,07,34,26.10
2021,06,26,07,35,26.10
2021,06,26,07,36,26.20
2021,06,26,07,37,26.30
2021,06,26,07,38,26.50
2021,06,26,07,39,26.50
2021,06,26,07,40,26.60
2021,06,26,07,41,26.70
2021,06,26,07,42,26.70
2021,06,26,07,43,26.80
2021,06,26,07,44,26.70
2021,06,26,07,45,26.80
2021,06,26,07,46,26.80
2021,06,26,07,47,26.90
2021,06,26,07,48,26.90
2021,06,26,07,49,26.90
2021,06,26,07,50,26.90
2021,06,26,07,51,27.00
2021,06,26,07,52,27.10
2021,06,26,07,53,27.20
2021,06,26,07,54,27.20
2021,06,26,07,55,27.30
2021,06,26,07,56,27.30
2021,06,26,07,57,27.40
2021,06,26,07,58,27.50
2021,06,26,07,59,27.60
2021,06,26,08,00,27.70
2021,06,26,08,01,27.70
2021,06,26,08,02,27.70
2021,06,26,08,03,27.80
2021,06,26,08,04,27.80
2021,06,26,08,05,27.80
2021,06,26,08,06,27.80
2021,06,26,08,07,27.80
2021,06,26,08,08,27.80
2021,06,26,08,09,27.80
2021,06,26,08,10,27.70
2021,06,26,08,11,27.70
2021,06,26,08,12,27.70
2021,06,26,08,13,27.70
2021,06,26,08,14,27.70
2021,06,26,08,15,27.70
2021,06,26,08,16,27.80
2021,06,26,08,17,27.80
2021,06,26,08,18,27.80
2021,06,26,08,19,27.80
2021,06,26,08,20,27.80
2021,06,26,08,21,27.80
2021,06,26,08,22,27.90
2021,06,26,08,23,27.90
2021,06,26,08,24,27.90
2021,06,26,08,25,27.80
2021,06,26,08,26,27.90
2021,06,26,08,27,27.90
2021,06,26,08,28,27.90
2021,06,26,08,29,27.90
2021,06,26,08,30,27.90
2021,06,26,08,31,27.90
2021,06,26,08,32,27.90
2021,06,26,08,33,27.90
2021,06,26,08,34,28.00
2021,06,26,08,35,28.00
2021,06,26,08,36,28.10
2021,06,26,08,37,28.10
2021,06,26,08,38,28.10
2021,06,26,08,39,28.10
2021,06,26,08,40,28.10
2021,06,26,08,41,28.10
2021,06,26,08,42,28.10
2021,06,26,08,43,28.20
2021,06,26,08,44,28.20
2021,06,26,08,45,28.30
2021,06,26,08,46,28.40
2021,06,26,08,47,28.40
2021,06,26,08,48,28.50
2021,06,26,08,49,28.70
2021,06,26,08,50,28.80
2021,06,26,08,51,28.90
2021,06,26,08,52,29.10
2021,06,26,08,53,29.20
2021,06,26,08,54,29.30
2021,06,26,08,55,29.30
2021,06,26,08,56,29.40
2021,06,26,08,57,29.40
2021,06,26,08,58,29.40
2021,06,26,08,59,29.40
2021,06,26,09,00,29.40
2021,06,26,09,01,29.30
2021,06,26,09,02,29.30
2021,06,26,09,03,29.20
2021,06,26,09,04,29.20
2021,06,26,09,05,29.30
2021,06,26,09,06,29.30
2021,06,26,09,07,29.40
2021,06,26,09,08,29.40
2021,06,26,09,09,29.50
2021,06,26,09,10,29.50
2021,06,26,09,11,29.50
2021,06,26,09,12,29.60
2021,06,26,09,13,29.60
2021,06,26,09,14,29.60
2021,06,26,09,15,29.60
2021,06,26,09,16,29.70
2021,06,26,09,17,29.70
2021,06,26,09,18,29.80
2021,06,26,09,19,29.80
2021,06,26,09,20,29.80
2021,06,26,09,21,29.80
2021,06,26,09,22,29.80
2021,06,26,09,23,29.70
2021,06,26,09,24,29.70
2021,06,26,09,25,29.60
2021,06,26,09,26,29.60
2021,06,26,09,27,29.70
2021,06,26,09,28,29.70
2021,06,26,09,29,29.70
2021,06,26,09,30,29.70
2021,06,26,09,31,29.70
2021,06,26,09,32,29.70
2021,06,26,09,33,29.70
2021,06,26,09,34,29.70
2021,06,26,09,35,29.70
2021,06,26,09,36,29.70
2021,06,26,09,37,29.60
2021,06,26,09,38,29.60
2021,06,26,09,39,29.60
2021,06,26,09,40,29.50
2021,06,26,09,41,29.40
2021,06,26,09,42,29.40
2021,06,26,09,43,29.40
2021,06,26,09,44,29.40
2021,06,26,09,45,29.30
2021,06,26,09,46,29.20
2021,06,26,09,47,29.10
2021,06,26,09,48,29.10
2021,06,26,09,49,29.00
2021,06,26,09,50,29.00
2021,06,26,09,51,29.10
2021,06,26,09,52,29.10
2021,06,26,09,53,29.20
2021,06,26,09,54,29.10
2021,06,26,09,55,29.10
2021,06,26,09,56,29.10
2021,06,26,09,57,29.10
2021,06,26,09,58,29.10
2021,06,26,09,59,29.10
2021,06,26,10,00,29.10
2021,06,26,10,01,29.20
2021,06,26,10,02,29.20
2021,06,26,10,03,29.30
2021,06,26,10,04,29.40
2021,06,26,10,05,29.50
2021,06,26,10,06,29.60
2021,06,26,10,07,29.70
2021,06,26,10,08,29.80
2021,06,26,10,09,29.90
2021,06,26,10,10,30.00
2021,06,26,10,11,30.00
2021,06,26,10,12,30.00
2021,06,26,10,13,30.00
2021,06,26,10,14,30.00
2021,06,26,10,15,29.90
2021,06,26,10,16,30.00
2021,06,26,10,17,30.00
2021,06,26,10,18,30.10
2021,06,26,10,19,30.20
2021,06,26,10,20,30.30
2021,06,26,10,21,30.50
2021,06,26,10,22,30.50
2021,06,26,10,23,30.50
2021,06,26,10,24,30.50
2021,06,26,10,25,30.50
2021,06,26,10,26,30.40
2021,06,26,10,27,30.40
2021,06,26,10,28,30.50
2021,06,26,10,29,30.50
2021,06,26,10,30,30.50
2021,06,26,10,31,30.60
2021,06,26,10,32,30.60
2021,06,26,10,33,30.60
2021,06,26,10,34,30.60
2021,06,26,10,35,30.60
2021,06,26,10,36,30.70
2021,06,26,10,37,30.70
2021,06,26,10,38,30.80
2021,06,26,10,39,30.90
2021,06,26,10,40,31.10
2021,06,26,10,41,31.20
2021,06,26,10,42,31.30
2021,06,26,10,43,31.50
2021,06,26,10,44,31.60
2021,06,26,10,45,31.70
2021,06,26,10,46,31.80
2021,06,26,10,47,31.90
2021,06,26,10,48,32.00
2021,06,26,10,49,32.10
2021,06,26,10,50,32.20
2021,06,26,10,51,32.30
2021,06,26,10,52,32.40
2021,06,26,10,53,32.50
2021,06,26,10,54,32.60
2021,06,26,10,55,32.70
2021,06,26,10,56,32.80
2021,06,26,10,57,32.90
2021,06,26,10,58,32.90
2021,06,26,10,59,32.90
2021,06,26,11,00,32.90
2021,06,26,11,01,33.00
2021,06,26,11,02,33.00
2021,06,26,11,03,33.10
2021,06,26,11,04,33.00
2021,06,26,11,05,32.90
2021,06,26,11,06,32.80
2021,06,26,11,07,32.70
2021,06,26,11,08,32.50
2021,06,26,11,09,32.30
2021,06,26,11,10,32.10
2021,06,26,11,11,32.10
2021,06,26,11,12,32.00
2021,06,26,11,13,32.00
2021,06,26,11,14,32.00
2021,06,26,11,15,32.00
2021,06,26,11,16,32.00
2021,06,26,11,17,31.80
2021,06,26,11,18,31.70
2021,06,26,11,19,31.60
2021,06,26,11,20,31.50
2021,06,26,11,21,31.50
2021,06,26,11,22,31.60
2021,06,26,11,23,31.60
2021,06,26,11,24,31.60
2021,06,26,11,25,31.60
2021,06,26,11,26,31.50
2021,06,26,11,27,31.40
2021,06,26,11,28,31.40
2021,06,26,11,29,31.30
2021,06,26,11,30,31.30
2021,06,26,11,31,31.20
2021,06,26,11,32,31.20
2021,06,26,11,33,31.10
2021,06,26,11,34,31.00
2021,06,26,11,35,30.90
2021,06,26,11,36,31.00
2021,06,26,11,37,31.00
2021,06,26,11,38,31.10
2021,06,26,11,39,31.20
2021,06,26,11,40,31.30
2021,06,26,11,41,31.30
2021,06,26,11,42,31.40
2021,06,26,11,43,31.50
2021,06,26,11,44,31.50
2021,06,26,11,45,31.50
2021,06,26,11,46,31.50
2021,06,26,11,47,31.60
2021,06,26,11,48,31.60
2021,06,26,11,49,31.60
2021,06,26,11,50,31.70
2021,06,26,11,51,31.70
2021,06,26,11,52,31.80
2021,06,26,11,53,31.90
2021,06,26,11,54,32.00
2021,06,26,11,55,31.90
2021,06,26,11,56,31.90
2021,06,26,11,57,31.90
2021,06,26,11,58,31.90
2021,06,26,11,59,31.90
2021,06,26,12,00,32.00
2021,06,26,12,01,32.00
2021,06,26,12,02,32.00
2021,06,26,12,03,32.10
2021,06,26,12,04,32.20
2021,06,26,12,05,32.40
2021,06,26,12,06,32.50
2021,06,26,12,07,32.50
2021,06,26,12,08,32.60
2021,06,26,12,09,32.70
2021,06,26,12,10,32.70
2021,06,26,12,11,32.70
2021,06,26,12,12,32.80
2021,06,26,12,13,32.80
2021,06,26,12,14,32.70
2021,06,26,12,15,32.60
2021,06,26,12,16,32.50
2021,06,26,12,17,32.40
2021,06,26,12,18,32.50
2021,06,26,12,19,32.60
2021,06,26,12,20,32.70
2021,06,26,12,21,32.80
2021,06,26,12,22,32.90
2021,06,26,12,23,33.00
2021,06,26,12,24,33.00
2021,06,26,12,25,33.00
2021,06,26,12,26,33.10
2021,06,26,12,27,33.20
2021,06,26,12,28,33.30
2021,06,26,12,29,33.40
2021,06,26,12,30,33.50
2021,06,26,12,31,33.60
2021,06,26,12,32,33.70
2021,06,26,12,33,33.70
2021,06,26,12,34,33.80
2021,06,26,12,35,33.90
2021,06,26,12,36,33.90
2021,06,26,12,37,34.00
2021,06,26,12,38,33.90
2021,06,26,12,39,33.90
2021,06,26,12,40,33.90
2021,06,26,12,41,34.00
2021,06,26,12,42,34.10
2021,06,26,12,43,34.00
2021,06,26,12,44,34.00
2021,06,26,12,45,34.00
2021,06,26,12,46,34.00
2021,06,26,12,47,33.90
2021,06,26,12,48,33.80
2021,06,26,12,49,33.70
2021,06,26,12,50,33.40
2021,06,26,12,51,33.20
2021,06,26,12,52,33.10
2021,06,26,12,53,33.00
2021,06,26,12,54,33.10
2021,06,26,12,55,33.20
2021,06,26,12,56,33.40
2021,06,26,12,57,33.50
2021,06,26,12,58,33.60
2021,06,26,12,59,33.70
2021,06,26,13,00,33.70
2021,06,26,13,01,33.60
2021,06,26,13,02,33.60
2021,06,26,13,03,33.50
2021,06,26,13,04,33.60
2021,06,26,13,05,33.60
2021,06,26,13,06,33.70
2021,06,26,13,07,33.70
2021,06,26,13,08,33.80
2021,06,26,13,09,33.60
2021,06,26,13,10,33.50
2021,06,26,13,11,33.40
2021,06,26,13,12,33.40
2021,06,26,13,13,33.40
2021,06,26,13,14,33.30
2021,06,26,13,15,33.20
2021,06,26,13,16,33.10
2021,06,26,13,17,33.20
2021,06,26,13,18,33.20
2021,06,26,13,19,33.30
2021,06,26,13,20,33.30
2021,06,26,13,21,33.30
2021,06,26,13,22,33.20
2021,06,26,13,23,33.10
2021,06,26,13,24,33.00
2021,06,26,13,25,33.00
2021,06,26,13,26,33.00
2021,06,26,13,27,32.90
2021,06,26,13,28,32.90
2021,06,26,13,29,32.80
2021,06,26,13,30,32.80
2021,06,26,13,31,32.80
2021,06,26,13,32,32.70
2021,06,26,13,33,32.60
2021,06,26,13,34,32.60
2021,06,26,13,35,32.60
2021,06,26,13,36,32.60
2021,06,26,13,37,32.50
2021,06,26,13,38,32.40
2021,06,26,13,39,32.30
2021,06,26,13,40,32.30
2021,06,26,13,41,32.30
2021,06,26,13,42,32.30
2021,06,26,13,43,32.30
2021,06,26,13,44,32.30
2021,06,26,13,45,32.40
2021,06,26,13,46,32.40
2021,06,26,13,47,32.50
2021,06,26,13,48,32.70
2021,06,26,13,49,32.80
2021,06,26,13,50,32.90
2021,06,26,13,51,32.90
2021,06,26,13,52,32.90
2021,06,26,13,53,32.90
2021,06,26,13,54,32.90
2021,06,26,13,55,33.00
2021,06,26,13,56,33.10
2021,06,26,13,57,33.20
2021,06,26,13,58,33.10
2021,06,26,13,59,33.20
2021,06,26,14,00,33.20
2021,06,26,14,01,33.30
2021,06,26,14,02,33.40
2021,06,26,14,03,33.50
2021,06,26,14,04,33.60
2021,06,26,14,05,33.60
2021,06,26,14,06,33.60
2021,06,26,14,07,33.60
2021,06,26,14,08,33.50
2021,06,26,14,09,33.40
2021,06,26,14,10,33.50
2021,06,26,14,11,33.60
2021,06,26,14,12,33.60
2021,06,26,14,13,33.60
2021,06,26,14,14,33.60
2021,06,26,14,15,33.70
2021,06,26,14,16,33.70
2021,06,26,14,17,33.80
2021,06,26,14,18,33.90
2021,06,26,14,19,34.00
2021,06,26,14,20,34.00
2021,06,26,14,21,34.00
2021,06,26,14,22,34.00
2021,06,26,14,23,34.10
2021,06,26,14,24,34.10
2021,06,26,14,25,34.00
2021,06,26,14,26,33.90
2021,06,26,14,27,33.80
2021,06,26,14,28,33.60
2021,06,26,14,29,33.60
2021,06,26,14,30,33.60
2021,06,26,14,31,33.60
2021,06,26,14,32,33.60
2021,06,26,14,33,33.60
2021,06,26,14,34,33.70
2021,06,26,14,35,33.70
2021,06,26,14,36,33.70
2021,06,26,14,37,33.60
2021,06,26,14,38,33.60
2021,06,26,14,39,33.70
2021,06,26,14,40,33.80
2021,06,26,14,41,33.80
2021,06,26,14,42,33.90
2021,06,26,14,43,34.00
2021,06,26,14,44,33.90
2021,06,26,14,45,33.90
2021,06,26,14,46,33.90
2021,06,26,14,47,33.90
2021,06,26,14,48,33.90
2021,06,26,14,49,33.80
2021,06,26,14,50,33.80
2021,06,26,14,51,33.80
2021,06,26,14,52,33.80
2021,06,26,14,53,33.80
2021,06,26,14,54,33.80
2021,06,26,14,55,33.80
2021,06,26,14,56,33.80
2021,06,26,14,57,33.70
2021,06,26,14,58,33.70
2021,06,26,14,59,33.70
2021,06,26,15,00,33.60
2021,06,26,15,01,33.60
2021,06,26,15,02,33.60
2021,06,26,15,03,33.60
2021,06,26,15,04,33.70
2021,06,26,15,05,33.70
2021,06,26,15,06,33.80
2021,06,26,15,07,33.80
2021,06,26,15,08,33.90
2021,06,26,15,09,34.00
2021,06,26,15,10,34.20
2021,06,26,15,11,34.20
2021,06,26,15,12,34.40
2021,06,26,15,13,34.50
2021,06,26,15,14,34.60
2021,06,26,15,15,34.60
2021,06,26,15,16,34.60
2021,06,26,15,17,34.60
2021,06,26,15,18,34.60
2021,06,26,15,19,34.60
2021,06,26,15,20,34.60
2021,06,26,15,21,34.60
2021,06,26,15,22,34.70
2021,06,26,15,23,34.70
2021,06,26,15,24,34.80
2021,06,26,15,25,34.80
2021,06,26,15,26,34.80
2021,06,26,15,27,34.80
2021,06,26,15,28,34.80
2021,06,26,15,29,34.80
2021,06,26,15,30,34.90
2021,06,26,15,31,35.00
2021,06,26,15,32,35.10
2021,06,26,15,33,35.30
2021,06,26,15,34,35.40
2021,06,26,15,35,35.40
2021,06,26,15,36,35.50
2021,06,26,15,37,35.50
2021,06,26,15,38,35.60
2021,06,26,15,39,35.60
2021,06,26,15,40,35.60
2021,06,26,15,41,35.70
2021,06,26,15,42,35.70
2021,06,26,15,43,35.60
2021,06,26,15,44,35.50
2021,06,26,15,45,35.40
2021,06,26,15,46,35.40
2021,06,26,15,47,35.30
2021,06,26,15,48,35.30
2021,06,26,15,49,35.30
2021,06,26,15,50,35.30
2021,06,26,15,51,35.30
2021,06,26,15,52,35.30
2021,06,26,15,53,35.20
2021,06,26,15,54,35.10
2021,06,26,15,55,35.00
2021,06,26,15,56,34.90
2021,06,26,15,57,34.90
2021,06,26,15,58,34.80
2021,06,26,15,59,34.80
2021,06,26,16,00,34.70
2021,06,26,16,01,34.60
2021,06,26,16,02,34.60
2021,06,26,16,03,34.60
2021,06,26,16,04,34.60
2021,06,26,16,05,34.60
2021,06,26,16,06,34.70
2021,06,26,16,07,34.80
2021,06,26,16,08,34.90
2021,06,26,16,09,35.00
2021,06,26,16,10,35.10
2021,06,26,16,11,35.20
2021,06,26,16,12,35.30
2021,06,26,16,13,35.40
2021,06,26,16,14,35.50
2021,06,26,16,15,35.60
2021,06,26,16,16,35.70
2021,06,26,16,17,35.70
2021,06,26,16,18,35.80
2021,06,26,16,19,35.80
2021,06,26,16,20,35.80
2021,06,26,16,21,35.70
2021,06,26,16,22,35.60
2021,06,26,16,23,35.60
2021,06,26,16,24,35.60
2021,06,26,16,25,35.50
2021,06,26,16,26,35.40
2021,06,26,16,27,35.40
2021,06,26,16,28,35.40
2021,06,26,16,29,35.40
2021,06,26,16,30,35.40
2021,06,26,16,31,35.50
2021,06,26,16,32,35.60
2021,06,26,16,33,35.70
2021,06,26,16,34,35.80
2021,06,26,16,35,35.80
2021,06,26,16,36,35.90
2021,06,26,16,37,35.90
2021,06,26,16,38,35.90
2021,06,26,16,39,35.90
2021,06,26,16,40,35.90
2021,06,26,16,41,35.80
2021,06,26,16,42,35.70
2021,06,26,16,43,35.70
2021,06,26,16,44,35.60
2021,06,26,16,45,35.60
2021,06,26,16,46,35.70
2021,06,26,16,47,35.60
2021,06,26,16,48,35.60
2021,06,26,16,49,35.70
2021,06,26,16,50,35.70
2021,06,26,16,51,35.70
2021,06,26,16,52,35.80
2021,06,26,16,53,35.80
2021,06,26,16,54,35.80
2021,06,26,16,55,35.90
2021,06,26,16,56,35.90
2021,06,26,16,57,35.90
2021,06,26,16,58,36.00
2021,06,26,16,59,36.00
2021,06,26,17,00,36.00
2021,06,26,17,01,36.00
2021,06,26,17,02,35.90
2021,06,26,17,03,35.80
2021,06,26,17,04,35.80
2021,06,26,17,05,35.70
2021,06,26,17,06,35.70
2021,06,26,17,07,35.70
2021,06,26,17,08,35.70
2021,06,26,17,09,35.70
2021,06,26,17,10,35.70
2021,06,26,17,11,35.80
2021,06,26,17,12,35.80
2021,06,26,17,13,35.80
2021,06,26,17,14,35.80
2021,06,26,17,15,35.90
2021,06,26,17,16,35.90
2021,06,26,17,17,36.00
2021,06,26,17,18,36.00
2021,06,26,17,19,36.00